Regional Weather Roundup
Issued by NWS

Home | Current Version | Previous Version | Graphics & Text | Print | Product List | Glossary On
Versions: 1 2 3 4 5 6 7 8 9 10 11 12 13 14 15 16 17 18 19 20 21 22 23 24 25 26 27 28 29 30 31 32 33 34 35 36 37 38 39 40 41 42 43 44 45 46 47 48 49 50
742
ASUS43 KOAX 231003
RWRNE

WEATHER ROUNDUP FOR NEBRASKA
NATIONAL WEATHER SERVICE OMAHA NE
500 AM CDT WED MAY 23 2018

NOTES: SATELLITE DATA IS BEING USED TO AUGMENT CLOUD COVER ABOVE
       12000 FEET.
       "FAIR" INDICATES FEW OR NO CLOUDS BELOW 12,000 FEET WITH NO
       SIGNIFICANT WEATHER AND/OR OBSTRUCTIONS TO VISIBILITY.


NEZ001>004-019>022-054>056-231100-
NEBRASKA PANHANDLE

CITY           SKY/WX    TMP DP  RH WIND       PRES   REMARKS
SCOTTSBLUFF    PTCLDY    53  53 100 NW7       29.94R
ALLIANCE       PTCLDY    55  54  96 E5        29.91S
CHADRON        CLOUDY    54  54 100 W3        29.92R
GORDON         FAIR      55  54  95 SW5       29.91S
KIMBALL        MOCLDY    54  51  89 CALM      29.98S
SIDNEY         CLOUDY    56  52  86 N7        29.95S
$$

NEZ057>060-069>072-079>082-231100-
SOUTHWEST NEBRASKA

CITY           SKY/WX    TMP DP  RH WIND       PRES   REMARKS
NORTH PLATTE   CLOUDY    68  59  73 S7        29.93S
IMPERIAL       MOCLDY    61  57  87 S5        29.93S
LEXINGTON      MOCLDY    67  61  80 S12       29.96R
MCCOOK         PTCLDY    66  58  75 S8        29.93R
OGALLALA       MOCLDY    65  57  76 S12G18    29.90R
$$

NEZ005>010-023>029-035>040-094-231100-
NORTH CENTRAL NEBRASKA

CITY           SKY/WX    TMP DP  RH WIND       PRES   REMARKS
VALENTINE      PTCLDY    69  62  78 S17       29.87F
AINSWORTH      MOCLDY    68  63  82 S14       29.91S
BROKEN BOW     MOCLDY    68  62  81 S9        29.94S
O`NEILL        MOCLDY    68  64  85 SE7       29.96R
ORD            MOCLDY    68  62  81 S7        29.94R
THEDFORD       PTCLDY    69  60  73 S9G17     29.93R
$$

NEZ041-046>049-061>064-073>077-083>087-231100-
SOUTH CENTRAL NEBRASKA

CITY           SKY/WX    TMP DP  RH WIND       PRES   REMARKS
GRAND ISLAND   PTCLDY    66  62  87 S10       29.97R
AURORA         CLEAR     66  64  91 S10       29.98S
HASTINGS       PTCLDY    68  62  81 S9        29.98R
HEBRON         CLEAR     70  65  82 S12       30.00R
HOLDREGE       MOCLDY    66  62  85 S14       29.97S
KEARNEY        PTCLDY    68  62  81 S14G21    29.97R
YORK           CLEAR     68  68 100 S10       29.99R
$$

NEZ011>018-030>034-042>045-231100-
NORTHEAST NEBRASKA

CITY           SKY/WX    TMP DP  RH WIND       PRES   REMARKS
NORFOLK        CLEAR     67  63  87 SE8       29.98R
ALBION         CLOUDY    66  63  91 SE7       29.98R
BLAIR          CLEAR     69  64  83 SE7       30.02R
COLUMBUS       CLEAR     70  64  81 S13       29.99R
FREMONT        CLEAR     69  64  83 SE7       30.01R
TEKAMAH        CLEAR     64  63  96 SE7       30.00R
WAYNE          CLEAR     64  63  96 S3        29.99R
$$

NEZ050>053-065>068-078-088>093-231100-
SOUTHEAST NEBRASKA

CITY           SKY/WX    TMP DP  RH WIND       PRES   REMARKS
LINCOLN        CLEAR     68  64  87 S8        30.00R
OMAHA EPPLEY   PTCLDY    68  62  81 S5        30.01R
BEATRICE       CLEAR     68  65  90 SE6       30.01R
FALLS CITY     CLEAR     67  63  87 SE7       30.02R
NEBRASKA CITY  CLEAR     66  66 100 S8        30.02S
PLATTSMOUTH    CLEAR     68  64  85 SE9       30.02R
$$

NEZ044-045-051>053-067-231100-
OMAHA AREA

CITY           SKY/WX    TMP DP  RH WIND       PRES   REMARKS
OMAHA EPPLEY   PTCLDY    68  62  81 S5        30.01R
BLAIR          CLEAR     69  64  83 SE7       30.02R
FREMONT        CLEAR     69  64  83 SE7       30.01R
MILLARD        CLEAR     68  64  88 SE5       30.01R
OFFUTT AFB     CLEAR     66  64  91 SE5       30.01R
PLATTSMOUTH    CLEAR     68  64  85 SE9       30.02R
WAHOO          FAIR      64  61  91 SE5       30.00R
$$




USA.gov is the U.S. government's official web portal to all federal, state and local government web resources and services.